This is the latest recevied weather packets stored in our database for station/object WC4PEM-9. If no packets are shown the sender has not sent any weather packets the latest 10 day(s).
| Time | Temp. | Humidity | Pressure | Rain* | Wind** | Luminosity | Snow |
|---|---|---|---|---|---|---|---|
| 1778008202 | 30° C | 47% | 1014.7 hPa | 0 mm | - | - | - |
| 1778008107 | 30° C | 47% | 1014.7 hPa | 0 mm | - | - | - |
| 1778007902 | 30° C | 51% | 1014.6 hPa | 0 mm | - | - | - |
| 1778007807 | 30° C | 51% | 1014.6 hPa | 0 mm | - | - | - |
| 1778007507 | 30° C | 51% | 1014.7 hPa | 0 mm | - | - | - |
| 1778007207 | 29.44° C | 54% | 1014.7 hPa | 0 mm | - | - | - |
| 1778006907 | 29.44° C | 52% | 1014.7 hPa | 0 mm | - | - | - |
| 1778006607 | 29.44° C | 51% | 1014.9 hPa | 0 mm | - | - | - |
| 1778006429 | 28.89° C | 48% | 1014.6 hPa | 0 mm | - | - | - |
| 1778006307 | 28.89° C | 48% | 1014.6 hPa | 0 mm | - | - | - |
| 1778006007 | 28.89° C | 50% | 1014.7 hPa | 0 mm | - | - | - |
| 1778005707 | 28.89° C | 53% | 1014.9 hPa | 0 mm | - | - | - |
| 1778005542 | 28.89° C | 52% | 1014.9 hPa | 0 mm | - | - | - |
| 1778005407 | 28.89° C | 52% | 1014.9 hPa | 0 mm | - | - | - |
| 1778005193 | 28.89° C | 53% | 1015 hPa | 0 mm | - | - | - |
| 1778005107 | 28.89° C | 53% | 1015 hPa | 0 mm | - | - | - |
| 1778004807 | 28.89° C | 52% | 1015.3 hPa | 0 mm | - | - | - |
| 1778004507 | 28.89° C | 51% | 1015.3 hPa | 0 mm | - | - | - |
| 1778004291 | 28.89° C | 52% | 1015.4 hPa | 0 mm | - | - | - |
| 1778004207 | 28.89° C | 52% | 1015.4 hPa | 0 mm | - | - | - |
| 1778003907 | 28.89° C | 53% | 1015.3 hPa | 0 mm | - | - | - |
| 1778003607 | 28.89° C | 51% | 1015.3 hPa | 0 mm | - | - | - |
| 1778003308 | 28.89° C | 52% | 1015.5 hPa | 0 mm | - | - | - |
| 1778003008 | 28.89° C | 51% | 1015.7 hPa | 0 mm | - | - | - |
| 1778002829 | 29.44° C | 51% | 1015.7 hPa | 0 mm | - | - | - |
* Rain latest hour (hover to see other rain measurements)
** Current wind speed in m/s (hover to see current wind gust speed)